Location: Maccacari
(45.1333°N, 11.1333°E)
Time: 08:31:58
(UTC+00:00)

Cosmos 2263 Rocket - Pass Details

Date: 18 September 2020
Orbit: 822 x 850 km, 71.0° (Epoch: 29 October)

Event Time Altitude Azimuth Distance (km) Brightness Sun altitude
Rises 19:31:46 0° 245° (WSW) 3,351 5.8 -23.1°
Reaches altitude 10° 19:34:40 10° 259° (W) 2,424 5.2 -23.6°
Maximum altitude 19:39:04 23° 312° (NW) 1,680 4.5 -24.2°
Drops below altitude 10° 19:43:30 10° 4° (N) 2,446 4.9 -24.9°
Sets 19:46:27 0° 19° (NNE) 3,388 5.5 -25.4°
